Lid_Strength_Index
7 7 7 7 7 7 6 1 1 1 1 1 1 1 1 0 0 1 0 1 0 1 2 2 2 3 2 3 3 2 2 2
8 8 8 8 8 7 6 6 2 1 2 2 2 2 2 1 1 0 0 0 1 1 2 2 2 2 3 2 2 3 3 2
4 5 8 9 8 8 7 6 5 1 1 1 1 1 1 1 1 1 0 0 0 1 2 2 2 2 2 2 2 2 2 2
6 5 5 4 5 4 5 6 4 1 1 1 1 2 2 2 2 1 1 0 1 1 1 1 2 2 2 2 2 2 3 2
6 6 5 5 4 5 5 3 4 1 1 2 2 3 4 2 2 1 1 1 1 1 1 1 2 2 2 2 1 2 2 3
7 6 5 5 6 7 6 5 4 2 2 2 2 3 2 2 2 2 2 2 1 1 1 1 2 2 1 1 1 2 1 2
8 8 8 8 7 7 8 5 4 2 2 2 2 3 3 3 2 2 2 2 1 2 2 2 2 1 1 1 1 1 1 1
11 11 11 11 10 10 8 8 6 2 2 2 2 2 2 3 2 2 2 2 2 1 2 2 2 1 2 2 1 1 2 1
12 13 12 12 11 11 11 9 9 8 3 2 2 2 3 2 2 2 2 2 2 2 2 2 2 1 1 1 1 1 1 1
13 13 13 13 12 11 10 10 9 9 9 2 2 2 2 3 2 2 2 2 3 2 1 2 2 1 1 1 1 2 1 1
14 14 14 14 13 12 10 10 10 9 9 7 2 2 3 3 3 3 3 2 2 2 2 2 2 1 1 2 2 1 1 1
16 15 15 15 14 13 12 11 11 10 10 8 4 3 3 3 3 3 3 3 3 3 2 3 3 2 2 2 1 1 2 1
16 16 16 15 15 14 14 12 11 11 10 7 3 3 4 3 4 3 3 4 3 3 3 3 3 2 2 2 2 1 2 2
17 17 16 16 16 16 15 14 13 11 10 10 8 7 3 3 3 3 3 3 3 4 3 3 3 3 3 2 2 2 2 1
18 18 17 16 16 16 16 16 14 13 12 11 11 10 6 3 3 3 3 3 3 3 3 3 3 3 3 4 4 4 2 1
17 17 17 16 16 16 17 16 15 14 13 14 13 12 11 10 5 3 3 3 3 3 3 3 4 6 9 9 7 6 4 3
17 17 16 16 17 17 16 16 16 15 15 14 14 14 14 13 13 12 11 11 10 8 8 8 9 10 13 12 11 5 5 6
17 17 17 16 16 16 18 17 16 16 16 16 15 15 16 15 14 14 14 14 13 13 12 12 13 13 13 12 12 8 9 10
18 17 17 16 15 16 16 17 17 17 17 17 17 16 16 16 15 16 15 15 15 15 15 15 14 14 13 13 13 12 12 13